TITAN 3C TRANSTAGE R/B, 3692

Orbit data source: Space-Track

TITAN 3C TRANSTAGE R/B, 3692 is space debris in GEO originally from a launch on Sun, 09 Feb 1969 UTC launched from the Air Force Eastern Test Range (AFETR). Debris objects in space refer to the collection of defunct objects orbiting the Earth. Examples of debris include non-operational satellites, rocket bodies, and fragments generated from explosions, collisions, or faulty payload assembly.

Not visible in the next 10 days
Identifier
3692, 1969-013B
Orbit
GEO
Country
Flag of USUS
Related business
Manufacturer
Martin Marietta
Mission
Spacecraft
Bus & Motor
TRANSTAGE, Unknown motor
Mass
2,028 kg wet, 2,028 kg dry
Launch date (UTC)
1969-02-09 (57 years ago)
Launch vehicle
Unknown
Launch site
Air Force Eastern Test Range (AFETR)
Object type
Payload
Rocket body
Debris
Shape & HBR
Unknown
Radar Cross Section
Large (>1 m²)

Expand to show TLE details & history
Last TLE update: 12 hours ago

TLE from 12 hours ago
0 TITAN 3C TRANSTAGE R/B
1 03692U 69013B   26094.84968088 -.00000285  00000-0  00000-0 0  9997
2 03692   1.1176  77.4160 0165698  36.4006 185.8598  0.97537032 41608
Epoch: 2026-04-04T20:23Z
TLE epoch observation values (Epoch: 2026-04-04T20:23:32.428Z)
Latitude
-0.72496°
Longitude
160.44208°
Altitude
37,275.267 km
Speed
2.997 km/s
True Right ascension
19h 57m 57s
True Declination
0° 43' 27"
Sunlit
Object was in daylight at epoch
Visualization orbit readout
Latitude
Unknown
Longitude
Unknown
Altitude
Unknown
Speed
Unknown
Apparent Right ascension
Unknown
Apparent Declination
Unknown
Sunlit
N/A
Visualization observer readout
Local Sidereal Time
14:22:56
Azimuth
Unknown
Elevation
Unknown
Doppler factor
Unknown
Orbital elements
Apogee altitude
37,283.832 km
Perigee altitude
35,860.477 km
Semi-major axis
42,950.292 km
Eccentricity
0.01657
Inclination
1.1176°
RAAN
77.416°
Arg. of periapsis
36.4006°
True anomaly
185.66986°
Mean anomaly
185.8598°
Eccentric anomaly
185.76445°
Mean motion
0.24383 °/min
Orbital period
1,476.42 mins
BSTAR
0
Loading maneuver chart data...
Computing Atmospheric mass density...

Documentation

Showing up to 5 results
|